This is the latest recevied weather packets stored in our database for station/object VK4JLM-1. If no packets are shown the sender has not sent any weather packets the latest 10 day(s).
| Time | Temp. | Humidity | Pressure | Rain* | Wind** | Luminosity | Snow |
|---|---|---|---|---|---|---|---|
| 1777565779 | 17.22° C | 98% | 1026.5 hPa | 0.25 mm | - | - | - |
| 1777563531 | 17.78° C | 95% | 1026.8 hPa | 0 mm | - | - | - |
| 1777562471 | 17.78° C | 93% | 1026.8 hPa | 0 mm | - | - | - |
| 1777561471 | 17.22° C | 97% | 1026.9 hPa | 0 mm | - | - | - |
| 1777560341 | 17.22° C | 97% | 1027.2 hPa | 0 mm | - | - | - |
| 1777559231 | 17.78° C | 96% | 1027.5 hPa | 0 mm | - | - | - |
| 1777558206 | 17.78° C | 95% | 1027.5 hPa | 0 mm | - | - | - |
| 1777556101 | 17.78° C | 94% | 1027.6 hPa | 0 mm | - | - | - |
| 1777554996 | 17.78° C | 95% | 1027.7 hPa | 0 mm | - | - | - |
| 1777553999 | 17.78° C | 93% | 1027.7 hPa | 0 mm | - | - | - |
| 1777552996 | 17.78° C | 94% | 1027.8 hPa | 0 mm | - | - | - |
| 1777551851 | 18.33° C | 93% | 1028.2 hPa | 0 mm | - | - | - |
| 1777550825 | 18.33° C | 92% | 1028.3 hPa | 0 mm | - | - | - |
| 1777549721 | 18.33° C | 92% | 1028.4 hPa | 0 mm | - | - | - |
| 1777548577 | 18.33° C | 89% | 1028.4 hPa | 0 mm | - | - | - |
| 1777547559 | 18.33° C | 90% | 1028.3 hPa | 0 mm | - | - | - |
| 1777546476 | 18.33° C | 92% | 1028.5 hPa | 0 mm | - | - | - |
| 1777545511 | 18.33° C | 92% | 1028.5 hPa | 0 mm | - | - | - |
| 1777544491 | 17.78° C | 93% | 1028.2 hPa | 0 mm | - | - | - |
| 1777543406 | 17.78° C | 93% | 1028.1 hPa | 0 mm | - | - | - |
| 1777541281 | 18.33° C | 91% | 1027.9 hPa | 0 mm | - | - | - |
| 1777540296 | 18.33° C | 92% | 1027.9 hPa | 0 mm | - | - | - |
| 1777539336 | 18.33° C | 91% | 1027.7 hPa | 0 mm | - | - | - |
| 1777538141 | 18.89° C | 91% | 1027.6 hPa | 0 mm | - | - | - |
| 1777537012 | 18.33° C | 90% | 1027.4 hPa | 0 mm | - | - | - |
* Rain latest hour (hover to see other rain measurements)
** Current wind speed in m/s (hover to see current wind gust speed)